Find Starlink 33777

NORAD ID: 63843 Int'l Des: 2025-093 Owner: SPXS Country: US Constellation: starlink operational
LEOCIRCULAR

Live Position

Loading 3D Globe...

About Starlink 33777

Description loading...

Upcoming Passes

Passes for default location (London). Set your location on the main map for personalized predictions.

Altitude History

Loading altitude history...

Two-Line Element Set

1 63843U 25093H 26104.64185161 .00004745 00000-0 18191-3 0 9991
2 63843 42.9985 234.5963 0001017 272.2917 87.7818 15.27568986 53479
Epoch: Apr 14, 2026 • Age: 5 hours

Current Status

Altitude 484.5 km
Velocity 7.63 km/s
Sub-Earth Point 31.67°N, 140.99°W
Launch Date May 7, 2025
Age 0.9 years
Type internet

Technical Details

Classification Payload
Mass 575.00 kg
Dry Mass 530.00 kg
Total Mass 575.00 kg
Length 0.30 m
Diameter 4.10 m
Span 29.00 m
Shape Box + pan
Manufacturer SPXS
Bus Type Starlink V2MO
Phase Status In Orbit
Owner/State SPXS/US

Most Searched